Eveleth, MN

2:54 AM CDT on April 28, 2017 (GMT -0500)
Eveleth-Virginia Municipal

Weather History for KEVM - September, 2013

Change the Weather History Date:

Thursday, September 26, 2013

  Actual Average Record
Temperature  
Mean Temperature 58 °F -  
Max Temperature 71 °F 59 °F 78 °F (2008)
Min Temperature 44 °F 37 °F 30 °F (2012)
Degree Days  
Heating Degree Days 8    
Growing Degree Days 8 (Base 50)    
Moisture  
Dew Point 51 °F    
Average Humidity 79    
Maximum Humidity 100    
Minimum Humidity 53    
Precipitation  
Precipitation 0.00 in - - ()
Sea Level Pressure  
Sea Level Pressure 29.96 in    
Wind  
Wind Speed 6 mph (SE)    
Max Wind Speed 18 mph    
Max Gust Speed 24 mph    
Visibility 8 miles    
Events      
Averages and records for this station are not official NWS values.
T = Trace of Precipitation, MM = Missing Value Source: NWS Daily Summary

Daily Weather History Graph

Daily Weather History Graph

Search for Another Location

Airport or City:

Trip Planner

Search our weather history database for the weather conditions in past years. The results will help you decide how hot, cold, wet, or windy it might be!

Date:

Astronomy

Sep. 26, 2013 Rise Set
Actual Time 7:02 AM CDT 6:59 PM CDT
Civil Twilight 6:31 AM CDT 7:29 PM CDT
Nautical Twilight 5:56 AM CDT 8:05 PM CDT
Astronomical Twilight 5:19 AM CDT 8:41 PM CDT
Moon 11:37 PM CDT (9/26) 2:15 PM CDT (9/26)
Length of Visible Light 12h 57m
Length of Day
11h 56m
Waning Gibbous, 54% of the Moon is Illuminated
Sep 26
Waning Gibbous
Sep 26
Last Quarter
Oct 4
New
Oct 11
First Quarter
Oct 18
Full

Hourly Weather History & Observations

Time (CDT) Temp. Dew Point Humidity Pressure Visibility Wind Dir Wind Speed Gust Speed Precip Events Conditions
12:06 AM 44.6 °F 42.8 °F 93% 29.99 in 2.0 mi Calm Calm - N/A   Clear
12:27 AM 50.0 °F 48.2 °F 94% 29.99 in 7.0 mi ESE 3.5 mph - N/A   Mostly Cloudy
12:46 AM 50.0 °F 48.2 °F 94% 29.98 in 3.0 mi Calm Calm - N/A   Overcast
1:07 AM 51.8 °F 51.8 °F 100% 29.98 in 4.0 mi Calm Calm - N/A   Overcast
1:27 AM 51.8 °F 51.8 °F 100% 29.98 in 5.0 mi Calm Calm - N/A   Overcast
1:46 AM 51.8 °F 51.8 °F 100% 29.99 in 7.0 mi ESE 4.6 mph - N/A   Overcast
2:07 AM 51.8 °F 51.8 °F 100% 29.99 in 7.0 mi SE 4.6 mph - N/A   Overcast
2:27 AM 51.8 °F 51.8 °F 100% 29.99 in 7.0 mi ESE 3.5 mph - N/A   Overcast
2:46 AM 51.8 °F 51.8 °F 100% 29.99 in 7.0 mi SE 6.9 mph - N/A   Overcast
3:07 AM 51.8 °F 50.0 °F 94% 29.98 in 7.0 mi SE 6.9 mph - N/A   Overcast
3:27 AM 51.8 °F 50.0 °F 94% 29.98 in 7.0 mi SE 4.6 mph - N/A   Overcast
3:47 AM 51.8 °F 50.0 °F 94% 29.98 in 7.0 mi ESE 4.6 mph - N/A   Overcast
4:07 AM 51.8 °F 50.0 °F 94% 29.98 in 7.0 mi SE 4.6 mph - N/A   Overcast
4:27 AM 51.8 °F 50.0 °F 94% 29.98 in 7.0 mi ESE 4.6 mph - N/A   Overcast
4:47 AM 51.8 °F 50.0 °F 94% 29.98 in 7.0 mi Calm Calm - N/A   Overcast
5:07 AM 51.8 °F 50.0 °F 94% 29.98 in 7.0 mi SE 3.5 mph - N/A   Overcast
5:27 AM 51.8 °F 50.0 °F 94% 29.98 in 7.0 mi ESE 3.5 mph - N/A   Overcast
5:47 AM 51.8 °F 50.0 °F 94% 29.98 in 7.0 mi Calm Calm - N/A   Overcast
6:07 AM 51.8 °F 50.0 °F 94% 29.98 in 7.0 mi East 3.5 mph - N/A   Overcast
6:27 AM 51.8 °F 50.0 °F 94% 29.98 in 5.0 mi Calm Calm - N/A   Mostly Cloudy
6:47 AM 51.8 °F 51.8 °F 100% 29.98 in 4.0 mi Calm Calm - N/A   Overcast
7:06 AM 51.8 °F 51.8 °F 100% 29.98 in 5.0 mi East 3.5 mph - N/A   Overcast
7:27 AM 51.8 °F 51.8 °F 100% 29.99 in 4.0 mi ESE 3.5 mph - N/A   Overcast
7:47 AM 51.8 °F 51.8 °F 100% 29.99 in 4.0 mi SE 6.9 mph - N/A   Overcast
8:06 AM 51.8 °F 50.0 °F 94% 29.99 in 5.0 mi ESE 6.9 mph - N/A   Overcast
8:27 AM 51.8 °F 50.0 °F 94% 29.98 in 7.0 mi ESE 6.9 mph - N/A   Scattered Clouds
8:47 AM 53.6 °F 51.8 °F 94% 29.98 in 10.0 mi SE 8.1 mph - N/A   Clear
9:06 AM 57.2 °F 51.8 °F 82% 29.98 in 10.0 mi SE 10.4 mph - N/A   Clear
9:27 AM 57.2 °F 50.0 °F 77% 29.98 in 10.0 mi SE 8.1 mph - N/A   Clear
9:47 AM 59.0 °F 51.8 °F 77% 29.98 in 10.0 mi SE 9.2 mph - N/A   Clear
10:06 AM 59.0 °F 50.0 °F 72% 29.98 in 10.0 mi SSE 10.4 mph - N/A   Clear
10:27 AM 62.6 °F 51.8 °F 68% 29.98 in 10.0 mi SE 12.7 mph - N/A   Clear
10:47 AM 62.6 °F 50.0 °F 63% 29.97 in 10.0 mi SE 10.4 mph - N/A   Clear
11:07 AM 62.6 °F 51.8 °F 68% 29.97 in 10.0 mi SE 11.5 mph - N/A   Clear
11:27 AM 64.4 °F 51.8 °F 64% 29.96 in 10.0 mi SSE 12.7 mph 18.4 mph N/A   Clear
11:47 AM 64.4 °F 51.8 °F 64% 29.96 in 10.0 mi South 15.0 mph 19.6 mph N/A   Clear
12:07 PM 68.0 °F 51.8 °F 56% 29.95 in 10.0 mi SSE 11.5 mph 18.4 mph N/A   Clear
12:27 PM 68.0 °F 51.8 °F 56% 29.95 in 10.0 mi SE 10.4 mph 18.4 mph N/A   Clear
12:47 PM 66.2 °F 51.8 °F 60% 29.95 in 10.0 mi SSE 10.4 mph - N/A   Scattered Clouds
1:07 PM 69.8 °F 53.6 °F 56% 29.94 in 10.0 mi SE 16.1 mph 23.0 mph N/A   Scattered Clouds
1:27 PM 69.8 °F 53.6 °F 56% 29.93 in 10.0 mi SE 11.5 mph 19.6 mph N/A   Clear
1:47 PM 71.6 °F 55.4 °F 57% 29.93 in 10.0 mi SE 12.7 mph 20.7 mph N/A   Clear
2:07 PM 71.6 °F 55.4 °F 57% 29.93 in 10.0 mi SSE 13.8 mph 19.6 mph N/A   Clear
2:27 PM 71.6 °F 55.4 °F 57% 29.92 in 10.0 mi SSE 12.7 mph 21.9 mph N/A   Clear
2:47 PM 71.6 °F 55.4 °F 57% 29.92 in 10.0 mi SE 16.1 mph 23.0 mph N/A   Clear
3:07 PM 71.6 °F 53.6 °F 53% 29.92 in 10.0 mi SE 17.3 mph 24.2 mph N/A   Clear
3:27 PM 71.6 °F 55.4 °F 57% 29.92 in 10.0 mi SSE 12.7 mph 21.9 mph N/A   Clear
3:47 PM 71.6 °F 55.4 °F 57% 29.91 in 10.0 mi SSE 18.4 mph 24.2 mph N/A   Clear
4:07 PM 71.6 °F 55.4 °F 57% 29.91 in 10.0 mi SE 15.0 mph 21.9 mph N/A   Clear
4:26 PM 71.6 °F 55.4 °F 57% 29.91 in 10.0 mi SE 10.4 mph - N/A   Clear
4:47 PM 69.8 °F 53.6 °F 56% 29.91 in 10.0 mi SE 13.8 mph 19.6 mph N/A   Clear
5:06 PM 69.8 °F 53.6 °F 56% 29.91 in 10.0 mi SE 16.1 mph - N/A   Clear
5:27 PM 68.0 °F 51.8 °F 56% 29.90 in 10.0 mi SE 15.0 mph 21.9 mph N/A   Clear
5:47 PM 68.0 °F 53.6 °F 60% 29.90 in 10.0 mi SE 13.8 mph 17.3 mph N/A   Clear
6:06 PM 64.4 °F 51.8 °F 64% 29.91 in 10.0 mi SE 13.8 mph 18.4 mph N/A   Clear
6:27 PM 64.4 °F 53.6 °F 68% 29.91 in 10.0 mi SE 8.1 mph - N/A   Clear
6:46 PM 62.6 °F 51.8 °F 68% 29.91 in 10.0 mi ESE 6.9 mph - N/A   Clear
7:07 PM 62.6 °F 53.6 °F 72% 29.91 in 10.0 mi ESE 3.5 mph - N/A   Clear
7:27 PM 59.0 °F 51.8 °F 77% 29.92 in 10.0 mi ESE 6.9 mph - N/A   Clear
7:47 PM 59.0 °F 51.8 °F 77% 29.92 in 10.0 mi ESE 8.1 mph - N/A   Clear
8:07 PM 59.0 °F 51.8 °F 77% 29.92 in 10.0 mi ESE 4.6 mph 16.1 mph N/A   Clear
8:27 PM 59.0 °F 50.0 °F 72% 29.95 in 10.0 mi SE 4.6 mph - N/A   Clear
8:46 PM 57.2 °F 50.0 °F 77% 29.95 in 10.0 mi Calm Calm - N/A   Clear
9:07 PM 57.2 °F 51.8 °F 82% 29.96 in 10.0 mi East 3.5 mph - N/A   Clear
9:27 PM 53.6 °F 50.0 °F 88% 29.96 in 10.0 mi ENE 3.5 mph - N/A   Clear
9:47 PM 53.6 °F 50.0 °F 88% 29.96 in 10.0 mi ENE 3.5 mph - N/A   Clear
10:07 PM 51.8 °F 48.2 °F 88% 29.96 in 10.0 mi ENE 3.5 mph - N/A   Clear
10:27 PM 51.8 °F 50.0 °F 94% 29.96 in 10.0 mi NE 3.5 mph - N/A   Clear
10:47 PM 51.8 °F 50.0 °F 94% 29.96 in 10.0 mi NE 4.6 mph - N/A   Clear
11:07 PM 51.8 °F 50.0 °F 94% 29.96 in 10.0 mi NE 3.5 mph - N/A   Clear
11:26 PM 51.8 °F 50.0 °F 94% 29.96 in 10.0 mi Calm Calm - N/A   Clear
11:47 PM 51.8 °F 50.0 °F 94% 29.96 in 10.0 mi Calm Calm - N/A   Clear